Location: Unspecified
(0.0000°N, 0.0000°E)
Time: 15:41:17
(UTC+00:00)

Courier 1B - Pass Details

Date: 09 February 2026
Orbit: 962 x 1208 km, 28.3° (Epoch: 16 March)

Event Time Altitude Azimuth Distance (km) Brightness Sun altitude
Rises 21:08:59 0° 269° (W) 4,007 11.5 -42.0°
Reaches altitude 10° 21:12:21 10° 282° (WNW) 3,078 10.6 -42.8°
Enters shadow 21:15:42 21° 306° (NW) 2,400 9.7 -43.6°
